Regional Weather Roundup
Issued by NWS Kansas City/Pleasant Hill, MO

Home | Current Version | Previous Version | Text Only | Print | Product List | Glossary On
Versions: 1 2 3 4 5 6 7 8 9 10 11 12 13 14 15 16 17 18 19 20 21 22 23 24 25 26 27 28 29 30 31 32 33 34 35 36 37 38 39 40 41 42 43 44 45 46 47 48 49 50
657
ASUS43 KEAX 061710
RWREAX

WEATHER ROUNDUP FOR EASTERN KANSAS AND NORTHWEST MISSOURI
NATIONAL WEATHER SERVICE KANSAS CITY/PLEASANT HILL MO
1100 AM CST SAT FEB 06 2016

KSZ040-057-103>105-MOZ028-029-037-043-061800-
...KANSAS CITY METROPOLITAN AREA...

CITY           SKY/WX    TMP DP  RH WIND       PRES   REMARKS
K.C. INTL      MOSUNNY   41  31  67 W5        30.30S
K.C. DOWNTOWN  SUNNY     42  30  62 CALM      30.31S
LEES SUMMIT    SUNNY     42  31  64 VRB3      30.31R
OLATHE - IXD   SUNNY     39  31  72 W3        30.32R
OLATHE - OJC   SUNNY     40  30  67 VRB3      30.31R
LAWRENCE       SUNNY     38  31  76 CALM      30.32F

$$

MOZ001>008-011>017-020>025-030>033-038>040-044>046-053-054-061800-
...NORTHERN AND CENTRAL MISSOURI...

CITY           SKY/WX    TMP DP  RH WIND       PRES   REMARKS
ST. JOSEPH     MOSUNNY   37  30  75 VRB3      30.30F
MOSBY          SUNNY     41  32  70 SW3       30.31S
WARRENSBURG    SUNNY     41  27  56 CALM      30.30S
WHITEMAN AFB   SUNNY     43  26  50 SW3       30.29R
CLINTON          N/A     45  30  57 W5        30.32R
SEDALIA        SUNNY     45  25  45 SW3       30.30S
WARSAW         NOT AVBL
CHILLICOTHE      N/A     40  30  67 VRB5      30.29F
KIRKSVILLE     SUNNY     43  25  49 W6        30.26S

$$

MOZ041-047>049-056>058-063>065-088>090-097-061800-
...EASTERN AND SOUTHERN MISSOURI...

CITY           SKY/WX    TMP DP  RH WIND       PRES   REMARKS
ST. LOUIS INTL MOSUNNY   48  22  35 W10       30.31F
SPIRIT OF STL  SUNNY     45  24  43 W8        30.31F
COLUMBIA       SUNNY     45  25  45 SW6       30.29S
JEFFERSON CITY SUNNY     46  26  45 S6        30.31F
ROLLA          SUNNY     47  27  45 SW10      30.28F
OSAGE BEACH    SUNNY     48  27  43 W9        30.31F
SPRINGFIELD    SUNNY     48  28  46 W7        30.32S
BRANSON        SUNNY     46  23  39 NW7       30.35S
JOPLIN         SUNNY     48  31  51 W7        30.34S
WEST PLAINS    SUNNY     49  18  29 W9        30.35R

$$

IAZ060-094-KSZ022-034>040-054-083-096-NEZ052-066-093-061800-
...KANSAS...SOUTHEAST NEBRASKA AND IOWA...

CITY           SKY/WX    TMP DP  RH WIND       PRES   REMARKS
TOPEKA         SUNNY     39  30  70 CALM      30.32F
MANHATTAN      SUNNY     38  30  73 S6        30.32S WCI  33
EMPORIA        SUNNY     39  31  72 CALM      30.33S
CHANUTE        SUNNY     42  30  62 VRB7      30.35R
WICHITA        SUNNY     43  30  60 NW6       30.36R
OMAHA          MOSUNNY   31  28  89 SW7       30.23R WCI  24
LINCOLN        SUNNY     30  24  78 SW10      30.26R WCI  21
FALLS CITY     SUNNY     39  31  72 SW8       30.28S WCI  33
LAMONI         CLOUDY    30  29  96 W10       30.25F FOG     WCI  21
DES MOINES     CLOUDY    31  27  85 W8        30.24S FOG     WCI  23

$$





USA.gov is the U.S. government's official web portal to all federal, state and local government web resources and services.